This is the latest recevied weather packets stored in our database for station/object BRIVER. If no packets are shown the sender has not sent any weather packets the latest 10 day(s).
| Time | Temp. | Humidity | Pressure | Rain* | Wind** | Luminosity | Snow |
|---|---|---|---|---|---|---|---|
| 1777771235 | 13.89° C | 64% | 1010.7 hPa | 0 mm | - | - | - |
| 1777771176 | 13.89° C | 64% | 1010.8 hPa | 0 mm | - | - | - |
| 1777770935 | 13.89° C | 65% | 1010.8 hPa | 0 mm | - | - | - |
| 1777770635 | 13.33° C | 65% | 1010.8 hPa | 0 mm | - | - | - |
| 1777770335 | 13.33° C | 68% | 1010.8 hPa | 0 mm | - | - | - |
| 1777770096 | 13.33° C | 67% | 1010.9 hPa | 0 mm | - | - | - |
| 1777770035 | 13.33° C | 67% | 1010.6 hPa | 0 mm | - | - | - |
| 1777769735 | 12.78° C | 72% | 1010.6 hPa | 0 mm | - | - | - |
| 1777769556 | 12.78° C | 71% | 1010.8 hPa | 0 mm | - | - | - |
| 1777769435 | 12.78° C | 70% | 1010.8 hPa | 0 mm | - | - | - |
| 1777769135 | 12.78° C | 70% | 1010.9 hPa | 0 mm | - | - | - |
| 1777768835 | 13.33° C | 68% | 1010.9 hPa | 0 mm | - | - | - |
| 1777768535 | 12.78° C | 69% | 1010.7 hPa | 0 mm | - | - | - |
| 1777768476 | 12.78° C | 68% | 1010.8 hPa | 0 mm | - | - | - |
| 1777768235 | 12.22° C | 71% | 1011.4 hPa | 0 mm | - | - | - |
| 1777767935 | 12.22° C | 76% | 1011.5 hPa | 0 mm | - | - | - |
| 1777767635 | 12.22° C | 76% | 1011.8 hPa | 0 mm | - | - | - |
| 1777767396 | 12.22° C | 78% | 1011.7 hPa | 0 mm | - | - | - |
| 1777767335 | 12.22° C | 77% | 1011.8 hPa | 0 mm | - | - | - |
| 1777767035 | 12.22° C | 73% | 1011.6 hPa | 0 mm | - | - | - |
| 1777766856 | 12.22° C | 82% | 1011.6 hPa | 0 mm | - | - | - |
| 1777766735 | 12.22° C | 81% | 1011.6 hPa | 0 mm | - | - | - |
| 1777766435 | 11.67° C | 82% | 1011.7 hPa | 0 mm | - | - | - |
| 1777766316 | 11.67° C | 81% | 1011.6 hPa | 0 mm | - | - | - |
| 1777766135 | 12.22° C | 84% | 1011.5 hPa | 0 mm | - | - | - |
* Rain latest hour (hover to see other rain measurements)
** Current wind speed in m/s (hover to see current wind gust speed)